• In Österreich
  • Länderverzeichnis
  • Für 7 Tage
  • Wassertemperatur
  • Satellitenkarten
  • Wetterkarte
  • News
  • Widgets
  • user-avatar
    Anmelden

    Stündliche Wetter Masvingo

    Heute, 20 Oktober, Freitag

    Zeit Temperatur Niederschläge Wind Luftdruck Luftfeuchtigkeit
    00:00 +28°C° 0 mm 2 m/S 671 mmHg 37%
    01:00 +27°C° 0 mm 2 m/S 671 mmHg 38%
    02:00 +27°C° 0 mm 2 m/S 670 mmHg 43%
    03:00 +27°C° 0 mm 2 m/S 670 mmHg 43%
    04:00 +27°C° 0 mm 2 m/S 671 mmHg 42%
    05:00 +26°C° 0 mm 2 m/S 671 mmHg 42%
    06:00 +28°C° 0 mm 2 m/S 671 mmHg 38%
    07:00 +30°C° 0 mm 2 m/S 672 mmHg 35%
    08:00 +31°C° 0 mm 2 m/S 673 mmHg 32%
    09:00 +34°C° 0 mm 3 m/S 673 mmHg 29%
    10:00 +35°C° 0 mm 3 m/S 674 mmHg 27%
    11:00 +37°C° 0 mm 4 m/S 674 mmHg 25%
    12:00 +37°C° 0 mm 4 m/S 673 mmHg 24%
    13:00 +38°C° 0 mm 4 m/S 673 mmHg 23%
    14:00 +39°C° 0 mm 5 m/S 673 mmHg 22%
    15:00 +37°C° 0 mm 5 m/S 672 mmHg 25%
    16:00 +36°C° 0 mm 5 m/S 672 mmHg 28%
    17:00 +35°C° 0 mm 6 m/S 672 mmHg 31%
    18:00 +33°C° 0 mm 5 m/S 672 mmHg 41%
    19:00 +30°C° 0 mm 5 m/S 673 mmHg 51%
    20:00 +27°C° 0 mm 5 m/S 673 mmHg 61%
    21:00 +26°C° 0,4 mm 5 m/S 673 mmHg 67%
    22:00 +25°C° 0,4 mm 4 m/S 674 mmHg 72%
    23:00 +25°C° 0,4 mm 4 m/S 674 mmHg 78%

    Morgen, 21 Oktober, Samstag

    Zeit Temperatur Niederschläge Wind Luftdruck Luftfeuchtigkeit
    00:00 +23°C° 0 mm 4 m/S 674 mmHg 79%
    01:00 +23°C° 0 mm 4 m/S 674 mmHg 81%
    02:00 +24°C° 0 mm 3 m/S 673 mmHg 82%
    03:00 +22°C° 0 mm 3 m/S 673 mmHg 83%
    04:00 +22°C° 0 mm 3 m/S 673 mmHg 84%
    05:00 +22°C° 0 mm 3 m/S 673 mmHg 85%
    06:00 +24°C° 0 mm 3 m/S 674 mmHg 80%
    07:00 +25°C° 0 mm 3 m/S 675 mmHg 75%
    08:00 +26°C° 0 mm 3 m/S 675 mmHg 69%
    09:00 +27°C° 0 mm 4 m/S 676 mmHg 63%
    10:00 +29°C° 0 mm 4 m/S 676 mmHg 57%
    11:00 +30°C° 0 mm 4 m/S 676 mmHg 51%
    12:00 +30°C° 0,6 mm 5 m/S 676 mmHg 53%
    13:00 +29°C° 0,6 mm 6 m/S 675 mmHg 56%
    14:00 +28°C° 0,6 mm 6 m/S 674 mmHg 59%
    15:00 +27°C° 0,2 mm 6 m/S 674 mmHg 63%
    16:00 +26°C° 0,2 mm 6 m/S 674 mmHg 67%
    17:00 +24°C° 0,2 mm 6 m/S 674 mmHg 71%
    18:00 +24°C° 0,3 mm 6 m/S 674 mmHg 72%
    19:00 +24°C° 0,3 mm 6 m/S 675 mmHg 73%
    20:00 +23°C° 0,3 mm 6 m/S 676 mmHg 74%
    21:00 +23°C° 0,1 mm 5 m/S 676 mmHg 75%
    22:00 +23°C° 0,1 mm 5 m/S 676 mmHg 75%
    23:00 +23°C° 0,1 mm 5 m/S 676 mmHg 76%

    übermorgen, 22 Oktober, Sonntag

    Zeit Temperatur Niederschläge Wind Luftdruck Luftfeuchtigkeit
    00:00 +22°C° 0 mm 4 m/S 676 mmHg 79%
    01:00 +22°C° 0 mm 3 m/S 675 mmHg 81%
    02:00 +21°C° 0 mm 3 m/S 675 mmHg 84%
    03:00 +21°C° 0 mm 3 m/S 675 mmHg 85%
    04:00 +20°C° 0 mm 3 m/S 675 mmHg 86%
    05:00 +20°C° 0 mm 4 m/S 675 mmHg 87%
    06:00 +21°C° 0 mm 4 m/S 675 mmHg 83%
    07:00 +21°C° 0 mm 4 m/S 676 mmHg 78%
    08:00 +21°C° 0 mm 4 m/S 676 mmHg 73%
    09:00 +25°C° 0 mm 4 m/S 677 mmHg 63%
    10:00 +27°C° 0 mm 4 m/S 677 mmHg 52%
    11:00 +29°C° 0 mm 4 m/S 677 mmHg 41%
    12:00 +30°C° 0 mm 4 m/S 676 mmHg 35%
    13:00 +33°C° 0 mm 4 m/S 675 mmHg 29%
    14:00 +34°C° 0 mm 4 m/S 675 mmHg 23%
    15:00 +34°C° 0 mm 4 m/S 674 mmHg 24%
    16:00 +33°C° 0 mm 4 m/S 674 mmHg 24%
    17:00 +33°C° 0 mm 4 m/S 674 mmHg 25%
    18:00 +30°C° 0 mm 4 m/S 674 mmHg 29%
    19:00 +29°C° 0 mm 4 m/S 674 mmHg 33%
    20:00 +27°C° 0 mm 3 m/S 675 mmHg 37%
    21:00 +26°C° 0 mm 3 m/S 674 mmHg 40%
    22:00 +26°C° 0 mm 2 m/S 674 mmHg 43%
    23:00 +25°C° 0 mm 2 m/S 674 mmHg 46%

    23 Oktober, Montag

    Zeit Temperatur Niederschläge Wind Luftdruck Luftfeuchtigkeit
    00:00 +24°C° 0 mm 2 m/S 673 mmHg 49%
    01:00 +24°C° 0 mm 1 m/S 673 mmHg 52%
    02:00 +23°C° 0 mm 1 m/S 672 mmHg 55%
    03:00 +23°C° 0 mm 1 m/S 672 mmHg 58%
    04:00 +22°C° 0 mm 1 m/S 672 mmHg 60%
    05:00 +22°C° 0 mm 1 m/S 673 mmHg 63%
    06:00 +24°C° 0 mm 1 m/S 673 mmHg 57%
    07:00 +25°C° 0 mm 2 m/S 674 mmHg 50%
    08:00 +27°C° 0 mm 2 m/S 675 mmHg 44%
    09:00 +29°C° 0 mm 2 m/S 675 mmHg 38%
    10:00 +31°C° 0 mm 2 m/S 675 mmHg 33%
    11:00 +33°C° 0 mm 3 m/S 675 mmHg 27%
    12:00 +34°C° 0 mm 3 m/S 674 mmHg 25%
    13:00 +35°C° 0 mm 3 m/S 673 mmHg 24%
    14:00 +36°C° 0 mm 3 m/S 673 mmHg 22%
    15:00 +35°C° 0 mm 3 m/S 672 mmHg 23%
    16:00 +34°C° 0 mm 4 m/S 672 mmHg 24%
    17:00 +34°C° 0 mm 4 m/S 672 mmHg 25%
    18:00 +33°C° 0 mm 3 m/S 672 mmHg 27%
    19:00 +30°C° 0 mm 3 m/S 673 mmHg 30%
    20:00 +29°C° 0 mm 3 m/S 673 mmHg 32%
    21:00 +28°C° 0 mm 2 m/S 673 mmHg 33%
    22:00 +27°C° 0 mm 2 m/S 673 mmHg 33%
    23:00 +26°C° 0 mm 2 m/S 673 mmHg 34%

    24 Oktober, Dienstag

    Zeit Temperatur Niederschläge Wind Luftdruck Luftfeuchtigkeit
    00:00 +26°C° 0 mm 2 m/S 672 mmHg 36%
    01:00 +25°C° 0 mm 1 m/S 672 mmHg 37%
    02:00 +25°C° 0 mm 1 m/S 671 mmHg 39%
    03:00 +24°C° 0 mm 1 m/S 671 mmHg 40%
    04:00 +24°C° 0 mm 1 m/S 671 mmHg 42%
    05:00 +23°C° 0 mm 1 m/S 671 mmHg 43%
    06:00 +25°C° 0 mm 1 m/S 672 mmHg 38%
    07:00 +28°C° 0 mm 1 m/S 673 mmHg 34%
    08:00 +30°C° 0 mm 2 m/S 674 mmHg 29%
    09:00 +33°C° 0 mm 1 m/S 674 mmHg 25%
    10:00 +35°C° 0 mm 1 m/S 674 mmHg 22%
    11:00 +37°C° 0 mm 1 m/S 674 mmHg 18%
    12:00 +37°C° 0 mm 1 m/S 673 mmHg 17%
    13:00 +38°C° 0 mm 2 m/S 672 mmHg 17%
    14:00 +38°C° 0 mm 3 m/S 671 mmHg 16%
    15:00 +38°C° 0 mm 3 m/S 671 mmHg 17%
    16:00 +37°C° 0 mm 4 m/S 671 mmHg 17%
    17:00 +36°C° 0 mm 4 m/S 671 mmHg 18%
    18:00 +35°C° 0 mm 4 m/S 671 mmHg 19%
    19:00 +33°C° 0 mm 4 m/S 672 mmHg 21%
    20:00 +32°C° 0 mm 4 m/S 672 mmHg 22%
    21:00 +30°C° 0 mm 3 m/S 672 mmHg 24%
    22:00 +29°C° 0 mm 3 m/S 672 mmHg 25%
    23:00 +28°C° 0 mm 3 m/S 672 mmHg 26%

    25 Oktober, Mittwoch

    Zeit Temperatur Niederschläge Wind Luftdruck Luftfeuchtigkeit
    00:00 +27°C° 0 mm 2 m/S 672 mmHg 28%
    01:00 +27°C° 0 mm 2 m/S 671 mmHg 31%
    02:00 +26°C° 0 mm 1 m/S 671 mmHg 33%
    03:00 +25°C° 0 mm 1 m/S 671 mmHg 35%
    04:00 +25°C° 0 mm 1 m/S 671 mmHg 36%
    05:00 +24°C° 0 mm 1 m/S 671 mmHg 38%
    06:00 +27°C° 0 mm 1 m/S 672 mmHg 34%
    07:00 +29°C° 0 mm 1 m/S 672 mmHg 30%
    08:00 +31°C° 0 mm 1 m/S 673 mmHg 27%
    09:00 +33°C° 0 mm 1 m/S 673 mmHg 23%
    10:00 +36°C° 0 mm 1 m/S 673 mmHg 20%
    11:00 +39°C° 0 mm 1 m/S 673 mmHg 16%
    12:00 +39°C° 0 mm 1 m/S 672 mmHg 15%
    13:00 +39°C° 0 mm 2 m/S 671 mmHg 15%
    14:00 +39°C° 0 mm 3 m/S 670 mmHg 14%
    15:00 +39°C° 0 mm 3 m/S 670 mmHg 14%
    16:00 +38°C° 0 mm 3 m/S 670 mmHg 14%
    17:00 +38°C° 0 mm 4 m/S 670 mmHg 14%
    18:00 +36°C° 0 mm 3 m/S 670 mmHg 16%
    19:00 +34°C° 0 mm 3 m/S 670 mmHg 17%
    20:00 +31°C° 0 mm 2 m/S 670 mmHg 19%
    21:00 +30°C° 0 mm 2 m/S 670 mmHg 21%
    22:00 +29°C° 0 mm 2 m/S 670 mmHg 23%
    23:00 +29°C° 0 mm 2 m/S 670 mmHg 25%
    Mehr zeigen